Погода в Сулеймании

Ирак     35°33′35″N   45°25′48″E
темп.,
°C
ветер,
м/с
пор.,
м/с
влажн.,
%
обл.,
%
осадки,
мм/ч
давл.,
гПа
погр.,
м
20 апреля, вт
вт2000:00+19ссв2244100 0.0 101511
03:00+18ссв2246100 0.0 101511
06:00+19ссв1146100 0.0 101511
09:00+26в112810 0.0 1015407
12:00+31зсз1318100 0.0 10132345
15:00+31зсз3417100 0.0 10113038
18:00+26ссз3330100 0.0 101226
21:00+22с2229100 0.0 101311
21 апреля, ср
ср2100:00+21всв1131100 0.0 101311
03:00+19св1131100 0.0 101211
06:00+20св1136100 0.0 101311
09:00+29юв332498 0.0 1013521
12:00+32ю4816100 0.0 10114025
15:00+32зюз891570 0.0 10104187
18:00+25ссз6103258 0.0 1012231
21:00+21ссв223571 0.0 101311
22 апреля, чт
чт2200:00+20ссв223570 0.0 101411
03:00+19св113588 0.0 101411
06:00+20всв1138100 0.0 101411
09:00+28вюв1224100 0.0 1014404
12:00+32зюз5917100 0.0 10134342
15:00+31зюз6818100 0.0 10123681
18:00+26з3331100 0.0 101234
21:00+22сз2235100 0.0 101314
23 апреля, пт
пт2300:00+21ссз2236100 0.0 101320
03:00+20сз2239100 0.0 101424
06:00+19ссв1145100 0.0 101411
09:00+26зсз112581 0.0 1014632
12:00+30з471527 0.0 10132827
15:00+29зсз7816100 0.0 10123210
18:00+23сз4527100 0.0 101371
21:00+19ссз44275 0.0 101534
24 апреля, сб
сб2400:00+16с22290 0.0 101412
03:00+15с22300 0.0 101411
06:00+15с22330 0.0 101512
09:00+24св11190 0.0 1014568
12:00+29ю11124 0.0 10121800
15:00+30ю01100 0.0 10102400
18:00+25с11220 0.0 101011
21:00+19с22252 0.0 101315